Flag for U.S.A. Weather past 2 weeks in Buffalo, New York, U.S.A.

Now
82 °F

Passing clouds.


Feels Like: 83 °F
Forecast: 66 / 85 °F
Wind: 9 mph from Southwest

Location: Greater Buffalo International Airport

Current Time: Jul 22, 2014 at 6:33:58 PM

Latest Report: Jul 22, 2014 at 12:54 PM


Visibility: 10 mi

Pressure: 30.08 "Hg

Humidity: 51%

Dew point: 63 °F

Location of BuffaloLocation

Historic Weather in Buffalo — Graph

°F

Buffalo temperature yesterday

Maximum temperature yesterday: 83 °F (at 3:54 PM)
Minimum temperature yesterday: 65 °F (at 5:54 AM)
Average temperature yesterday: 74 °F

Past Weeks' High & Low Weather Summary

 TemperatureHumidityPressure
High83 °F (Jul 21, 3:54 PM)93% (Jul 8, 4:54 AM)30.25 "Hg (Jul 8, 4:54 AM)
Low56 °F (Jul 10, 4:54 AM)29% (Jul 11, 4:54 PM)29.49 "Hg (Jul 8, 3:54 PM)
Average69 °F69%29.98 "Hg
* Reported Jul 7 12:54 PM — Jul 22 12:54 PM, Buffalo, Weather by CustomWeather, © 2014

Note: Actual official high and low records may vary slightly from our data, if they occured in-between our weather recording intervals... More about our weather records

Advertising

Buffalo weather history for previous 24 hours

 ConditionsComfort  
Time TempWeatherWind HumidityBarometerVisibility
12:54 PM
Jul 22
83 °FPassing clouds.9 mph50%30.06 "Hg10 mi
11:54 AM82 °FPassing clouds.12 mph51%30.08 "Hg10 mi
10:54 AM81 °FPassing clouds.N/A49%30.11 "Hg10 mi
9:54 AM76 °FSunny.3 mph56%30.11 "Hg10 mi
8:54 AM72 °FSunny.6 mph71%30.12 "Hg10 mi
7:54 AM68 °FSunny.5 mph78%30.13 "Hg10 mi
6:54 AM63 °FClear.5 mph87%30.13 "Hg10 mi
5:54 AM63 °FClear.3 mph84%30.13 "Hg10 mi
4:54 AM63 °FClear.6 mph87%30.12 "Hg10 mi
3:54 AM64 °FClear.5 mph87%30.11 "Hg10 mi
2:54 AM64 °FClear.5 mph87%30.11 "Hg10 mi
1:54 AM65 °FClear.3 mph85%30.11 "Hg10 mi
12:54 AM67 °FClear.5 mph76%30.12 "Hg10 mi
11:54 PM
Jul 21
69 °FPassing clouds.5 mph68%30.12 "Hg10 mi
10:54 PM72 °FPassing clouds.3 mph64%30.12 "Hg10 mi
9:54 PM72 °FPassing clouds.3 mph59%30.13 "Hg10 mi
8:54 PM74 °FPassing clouds.6 mph52%30.11 "Hg10 mi
7:54 PM78 °FPassing clouds.5 mph46%30.10 "Hg10 mi
6:54 PM80 °FPassing clouds.8 mph45%30.11 "Hg10 mi
Weather by CustomWeather, © 2014

See weather overviewHow to use our weather pages